カタログに戻る

OSCAR 29

運用中アマチュア無線PO
NORAD 18362·PAYLOAD·🇺🇸 United States

打ち上げ Sep 16, 1987 から Vandenberg Space Force Base

Loading…

次のパス (今後24時間)

TLE

最新Source: Space-Track

元期: Sep 14, 2026, 12:07 UTC

1 18362U 87080B   26257.50553954  .00000056  00000-0  78424-4 0  9991
2 18362  90.3626  89.9099 0105290 177.3663 199.8688 13.44489504912151

AllMySatでOSCAR 29をリアルタイム追跡

Download on the App Store